Location: Petruro
(41.0333°N, 14.7833°E)
Time: 14:32:45
(UTC+00:00)

Aureole 3 Rocket - Pass Details

Date: 20 June 2021
Orbit: 399 x 1738 km, 82.5° (Epoch: 04 August)

Event Time Altitude Azimuth Distance (km) Brightness Sun altitude
Rises 00:34:18 0° 355° (N) 2,665 7.4 -22.1°
Reaches altitude 10° 00:36:11 10° 358° (N) 1,890 6.5 -22.0°
Maximum altitude 00:40:17 69° 82° (E) 755 3.5 -21.6°
Enters shadow 00:42:29 35° 156° (SSE) 1,258 4.3 -21.5°
